Regional Weather Roundup
Issued by NWS

Home | Current Version | Previous Version | Text Only | Print | Product List | Glossary On
Versions: 1 2 3 4 5 6 7 8 9 10 11 12 13 14 15 16 17 18 19 20 21 22 23 24 25 26 27 28 29 30 31 32 33 34 35 36 37 38 39 40 41 42 43 44 45 46 47 48 49 50
000
ASUS45 KBOI 251910
RWRID

IDAHO REGIONAL WEATHER ROUNDUP
NATIONAL WEATHER SERVICE BOISE ID
100 PM MDT TUE JUL 25 2017

NOTE: "FAIR" INDICATES FEW OR NO CLOUDS BELOW 12000 FEET
WITH NO SIGNIFICANT WEATHER AND/OR OBSTRUCTIONS TO VISIBILITY

IDZ012-014-252000-
SOUTHWEST IDAHO


CITY           SKY/WX    TMP DP  RH WIND       PRES   REMARKS
BOISE          PTSUNNY   88  47  24 NW10      30.00S
CALDWELL       PTSUNNY   80  52  37 N3        29.99F
MOUNTAIN HOME  MOSUNNY   90  53  27 N6        29.98F
$$

IDZ016-017-252000-
SOUTHCENTRAL IDAHO


CITY           SKY/WX    TMP DP  RH WIND       PRES   REMARKS
BURLEY         PTSUNNY   81  56  42 S12       30.07F
JEROME         SUNNY     86  52  30 VRB3      30.07F
TWIN FALLS     MOSUNNY   85  55  35 NE12      30.06F
$$

IDZ019>023-252000-
SOUTHEAST IDAHO


CITY           SKY/WX    TMP DP  RH WIND       PRES   REMARKS
IDAHO FALLS    CLOUDY    77  55  46 S13       30.14R
POCATELLO      CLOUDY    81  53  37 SW8       30.12S
REXBURG        CLOUDY    80  53  39 W12       30.13S
$$

IDZ006-010-011-018-031-032-252000-
CENTRAL IDAHO MOUNTAINS


CITY           SKY/WX    TMP DP  RH WIND       PRES   REMARKS
MCCALL         MOSUNNY   79  45  29 VRB6      30.11F
HAILEY         CLOUDY    70  55  60 W10       30.19S
STANLEY          N/A     75  44  33 N5        30.24F
SALMON         NOT AVBL
CHALLIS        CLOUDY    73  51  46 SE15G22   30.15S
$$

IDZ002-004-006-007-026-252000-
NORTHERN IDAHO


CITY           SKY/WX    TMP DP  RH WIND       PRES   REMARKS
LEWISTON       SUNNY     87  41  19 W6        29.97F
LOWELL           N/A     84  45  25 CALM      29.96F
COEUR D`ALENE  SUNNY     83  41  22 VRB3      30.03
MULLAN PASS    SUNNY     69  31  24 VRB6      30.20S
$$



USA.gov is the U.S. government's official web portal to all federal, state and local government web resources and services.